« Back
NWS Peachtree City, Ga » Text Product » CSG Terminal Aerodrome Forecast


Printer-friendly Version
Current Version              Previous Versions:   1  2  3  4  5  6  7  8  9  

Terminal Aerodrome Forecast

826
FTUS42 KFFC 260330 AAA
TAFCSG
TAF AMD
KCSG 260330Z 2604/2624 20004KT P6SM SCT060 BKN100
     FM260600 00000KT P6SM SCT100
     FM261600 19006KT P6SM SCT045 PROB30 2619/2623 4SM -TSRA BR
      BKN035CB=

USA.gov is the U.S. government's official web portal to all federal, state and local government web resources and services.